Wind_Speed
16 18 19 17 15 14 14 16 15 13 11 10 10 11 11 11 14 17 17 14 11 9 6 4 3 2 1 2 4 5 5 7 8 10 11 14 14 13 13 14 16 17 18 18 18 19 19 20 20 20 21 21 20 19 18 17 17 18 19 21 22 22 22 23 25 24 19 17 16 16 16 16 15 16 20 25 29 31 35 42 48 51 56 62 65
13 15 17 16 16 16 17 19 19 18 15 13 14 14 15 17 19 19 16 12 9 5 3 2 1 1 1 3 4 5 6 7 8 10 12 14 13 13 13 14 17 18 18 18 18 19 20 20 20 21 21 22 21 21 20 19 18 19 20 21 22 22 22 22 24 24 20 18 17 15 18 17 15 16 19 25 28 29 34 40 47 51 54 58 62
12 13 15 16 16 17 18 19 21 21 18 16 17 18 19 20 19 17 13 8 4 2 2 2 1 1 2 4 5 6 6 7 8 11 12 13 13 13 13 15 17 18 18 18 18 19 20 20 21 22 22 22 22 22 21 20 20 20 20 21 22 23 23 22 23 25 21 19 18 15 19 20 16 17 20 24 28 30 34 38 43 49 52 55 58
11 13 13 14 15 15 15 16 17 18 18 16 16 17 18 18 15 11 6 2 2 3 3 2 1 1 3 4 6 7 6 7 10 11 12 12 12 13 13 15 17 18 18 18 19 19 20 21 21 22 23 24 23 23 22 21 21 21 21 21 22 22 23 23 23 25 23 20 19 14 16 20 18 20 22 24 28 31 34 35 38 44 48 51 54
10 11 11 12 12 13 12 11 11 11 12 12 13 13 13 10 6 2 2 4 5 4 3 2 2 2 3 5 7 7 7 8 10 12 12 11 12 12 13 15 16 17 18 19 20 20 21 21 21 22 23 25 25 24 23 22 21 21 21 21 22 22 23 24 24 25 23 21 20 14 14 19 20 21 23 23 27 31 33 33 35 38 43 46 49
8 8 8 8 9 10 10 9 8 7 8 8 7 7 4 1 4 5 6 6 5 4 3 3 2 2 4 6 7 7 7 9 10 11 11 10 11 12 13 15 16 17 19 20 21 21 22 22 21 21 22 24 25 25 24 23 22 21 22 21 21 22 23 23 23 25 24 22 21 17 13 17 21 21 22 23 26 30 32 32 32 33 37 40 42
14 12 9 8 7 6 6 5 4 4 5 5 4 4 5 7 8 6 6 6 5 4 4 3 3 4 5 6 7 7 9 10 10 10 10 10 11 12 13 14 15 16 19 20 21 21 22 22 22 20 21 22 24 26 26 25 23 21 21 21 21 22 22 22 23 25 25 23 22 19 13 14 19 21 21 22 24 27 29 30 31 31 32 35 37
19 17 14 13 12 11 10 9 9 9 9 9 8 7 8 9 7 5 5 5 4 4 4 4 5 6 6 6 7 8 10 10 10 9 9 10 11 12 13 13 14 16 19 20 21 21 21 22 22 20 19 20 22 24 26 27 25 23 21 21 21 21 22 22 22 24 25 23 22 19 14 12 16 18 19 20 21 24 26 27 28 30 31 32 33
21 21 19 18 18 16 15 15 14 12 12 11 9 8 8 7 6 5 5 5 4 4 5 5 6 6 6 6 7 9 10 9 9 9 10 11 10 11 12 13 14 16 18 19 20 21 21 22 23 21 18 18 20 22 25 27 27 25 22 21 21 21 22 22 22 24 24 22 21 19 13 11 14 16 17 19 19 20 22 24 25 27 28 29 30
21 21 21 21 20 19 19 18 18 14 12 11 8 9 8 5 6 6 5 4 3 4 5 5 5 6 6 6 7 8 8 8 9 10 11 10 8 9 12 13 14 16 17 17 18 19 20 22 23 23 19 17 18 21 23 25 27 28 25 21 21 21 22 22 21 22 23 22 21 19 13 10 13 15 17 17 17 17 19 21 22 23 25 26 26
20 20 20 20 20 19 18 18 17 14 12 11 8 8 7 5 5 5 5 5 3 4 5 4 4 5 5 5 6 7 7 8 10 11 10 8 7 7 10 12 13 14 16 18 19 19 20 21 23 25 23 19 17 19 22 24 26 28 27 23 21 20 21 23 22 22 22 21 21 19 14 11 12 14 16 15 15 15 16 17 19 20 21 22 23
20 20 19 19 18 17 16 16 14 12 11 10 8 7 6 6 5 5 4 3 3 3 4 4 4 4 5 6 5 7 7 8 10 11 9 8 8 7 8 11 12 13 16 17 18 18 19 20 22 25 26 23 20 18 20 22 24 27 28 24 21 20 21 22 22 22 21 20 20 19 14 12 12 13 14 14 14 14 15 15 16 17 18 19 20
20 20 19 18 17 16 15 14 13 12 10 9 8 7 7 6 5 5 4 3 3 3 4 4 4 4 5 5 6 7 7 8 10 10 9 8 7 8 9 10 11 13 15 17 17 17 16 17 20 22 23 25 23 19 19 21 22 26 28 24 21 20 20 22 22 22 21 19 20 19 14 13 12 12 13 13 13 13 14 13 14 15 16 17 19
21 20 19 18 17 16 15 14 13 13 11 10 9 9 8 7 6 6 5 4 4 4 4 4 5 5 5 4 5 6 6 6 7 8 8 7 7 8 9 10 10 11 12 15 15 14 15 16 18 20 21 22 22 20 20 20 20 24 27 24 21 21 20 21 22 22 21 19 19 19 14 13 13 12 13 13 12 13 13 13 13 14 15 17 19
20 20 19 18 17 16 15 14 14 13 12 11 10 9 8 7 6 6 5 4 5 5 5 5 5 5 5 4 4 5 6 6 6 7 7 7 7 8 10 10 10 10 10 11 12 13 15 16 17 18 19 19 20 20 21 21 20 23 26 24 21 21 21 20 21 22 21 18 18 18 14 14 13 13 13 13 13 13 13 14 14 14 15 17 19
20 19 18 17 17 16 15 14 14 13 12 12 11 9 8 7 7 6 5 5 5 5 6 6 6 5 5 5 4 5 6 6 6 7 7 7 8 9 10 10 10 11 10 10 12 14 14 15 16 17 17 18 20 22 21 20 20 22 25 24 22 22 22 20 20 21 20 17 17 17 14 14 14 13 13 13 13 13 13 14 14 15 16 17 17
20 19 19 18 17 16 15 14 13 12 12 11 10 9 8 8 8 7 6 6 6 6 7 7 7 7 6 6 6 5 6 6 6 5 6 7 8 9 10 11 11 11 11 12 11 11 12 13 15 17 18 19 20 22 22 20 20 22 24 23 23 23 23 21 20 21 20 17 17 16 14 14 14 14 13 13 13 13 13 14 14 15 15 16 16
20 19 19 18 17 16 15 14 13 13 11 10 10 9 9 9 9 9 8 7 8 8 8 8 8 8 7 7 7 6 5 5 5 5 6 7 8 10 10 12 12 11 12 12 10 10 11 12 14 16 19 20 20 20 21 21 20 22 23 23 24 24 23 22 21 21 20 17 17 16 14 14 14 14 13 13 13 13 14 13 14 15 15 15 15
19 19 19 18 18 17 16 15 14 14 13 12 12 11 10 11 11 10 9 9 9 9 9 8 8 8 7 7 7 7 7 5 6 7 7 8 9 10 10 11 12 12 12 10 9 12 12 11 13 15 16 19 19 18 21 21 21 22 23 24 24 24 24 23 22 21 19 17 16 16 15 14 15 15 14 13 13 13 14 14 13 14 14 15 15
18 18 18 18 18 17 16 16 15 14 14 14 15 14 13 14 13 13 12 12 11 11 11 10 9 8 8 8 7 7 7 7 7 7 7 8 8 9 9 10 10 10 11 11 10 11 13 12 13 14 15 18 18 17 20 21 21 22 22 23 24 24 23 23 22 21 18 17 17 16 15 15 15 16 16 14 13 13 13 13 13 13 13 13 14
18 18 18 17 17 17 16 16 15 15 16 16 16 16 16 15 15 15 14 14 14 13 12 12 11 10 9 9 9 8 8 7 7 7 7 7 8 8 8 8 9 9 11 12 11 10 12 12 12 13 15 18 18 17 19 20 21 22 21 22 23 23 23 22 21 20 19 18 18 17 17 16 16 16 16 16 14 13 13 13 13 12 12 12 12
18 18 18 18 17 17 17 16 16 17 17 17 17 17 17 17 17 16 16 16 16 15 14 14 13 12 12 11 11 11 10 9 9 9 9 10 11 11 9 8 9 11 13 13 12 12 12 11 12 13 15 16 17 15 16 18 20 21 21 21 22 23 23 22 21 20 20 20 20 19 18 17 17 17 17 17 16 14 14 13 13 12 11 11 11
20 19 19 19 18 18 17 17 17 17 18 17 18 18 18 18 18 17 17 17 17 17 16 16 15 14 14 13 13 13 13 12 12 11 12 12 14 14 12 9 9 12 14 15 15 15 13 13 14 14 14 15 15 15 16 19 21 21 22 21 22 23 23 23 22 22 22 22 22 21 20 19 19 19 19 18 17 16 14 14 13 13 12 10 10
20 20 20 19 19 19 18 18 18 18 18 18 18 19 19 19 19 19 19 18 18 18 18 17 17 16 16 16 16 16 15 15 15 14 14 13 14 15 12 11 11 12 13 15 17 17 15 15 15 14 13 13 15 17 18 20 21 22 24 23 23 24 25 25 25 24 24 24 23 22 22 22 21 21 21 20 18 17 16 15 14 14 13 12 10
19 20 20 20 19 19 19 18 18 19 19 19 19 20 20 20 21 21 21 20 20 20 19 19 19 18 18 18 18 18 17 17 17 17 17 17 16 16 14 13 12 11 13 15 16 15 14 12 12 14 14 14 18 20 21 21 21 23 25 26 26 27 28 28 28 27 27 26 25 24 23 23 23 23 23 22 21 19 18 16 16 15 14 13 12
16 18 19 20 19 19 19 19 19 19 19 20 21 21 22 22 22 22 22 22 22 22 21 21 20 20 20 20 20 20 19 19 19 18 18 18 17 16 14 11 9 9 13 15 14 14 14 12 12 14 16 18 20 21 21 22 24 26 28 29 30 31 32 32 32 32 31 29 28 27 26 25 25 24 24 24 23 22 21 19 18 17 16 15 14
14 15 17 18 19 19 19 19 19 19 19 20 21 22 22 22 23 23 23 23 23 23 22 22 22 22 22 22 21 21 21 21 22 21 20 19 17 16 15 13 11 11 12 14 14 14 15 13 10 10 15 21 22 21 22 25 27 29 31 32 33 34 36 36 37 37 35 34 33 31 30 28 27 27 26 25 24 24 23 22 21 20 19 17 17
11 12 14 15 17 18 18 18 18 18 18 19 20 21 21 21 22 23 23 23 23 23 23 23 24 24 23 23 23 22 23 23 23 23 22 21 19 18 17 16 15 15 15 15 15 15 15 15 13 15 21 25 24 22 24 25 28 32 33 34 35 37 39 39 40 40 40 39 38 36 35 34 32 31 29 28 27 25 25 24 24 23 22 21 20
9 10 11 13 14 15 16 17 17 17 17 18 19 19 19 20 21 22 23 23 23 23 23 24 24 24 24 24 24 24 24 24 23 23 23 22 21 20 20 19 18 19 21 22 22 21 23 23 22 22 23 24 23 22 22 24 29 33 34 36 38 40 41 42 42 43 43 43 42 41 40 39 37 36 34 32 31 29 28 27 26 25 25 24 23
7 8 9 10 11 12 13 15 15 16 16 17 18 17 18 19 20 21 22 22 23 23 23 24 24 24 25 24 25 24 24 24 24 24 24 23 23 23 23 23 23 23 24 27 27 25 25 27 25 24 23 23 23 22 21 26 31 33 35 38 40 42 43 43 44 45 45 45 45 44 44 43 42 41 39 38 36 34 32 31 29 28 27 27 26
6 6 7 7 9 10 11 12 13 14 14 15 16 16 16 16 16 18 20 20 21 22 22 22 23 23 24 24 24 24 24 24 24 25 24 24 25 25 25 25 25 26 27 29 30 26 25 26 27 27 26 25 26 24 23 27 31 33 36 38 40 42 44 45 45 46 46 46 46 46 46 46 46 45 44 43 41 39 38 36 35 33 32 31 31
4 4 4 5 6 7 8 9 10 11 12 13 14 14 15 15 14 14 17 18 18 20 20 21 22 22 22 23 23 23 23 24 24 24 24 25 26 26 26 27 27 28 29 29 29 27 24 23 24 27 28 26 25 24 24 25 28 31 34 35 35 38 39 41 44 45 46 46 47 47 48 48 48 48 47 47 46 45 43 42 41 40 39 38 37
3 2 2 3 4 5 5 6 7 8 9 10 11 11 12 13 13 13 14 14 16 17 18 20 20 21 21 22 22 22 22 22 23 24 24 24 25 26 26 27 28 27 27 27 26 25 23 22 22 24 25 24 23 24 25 26 26 28 30 31 33 35 34 35 39 42 43 44 45 46 47 47 48 48 48 48 48 47 47 46 45 45 44 43 43
2 2 1 2 2 3 4 4 5 6 6 7 8 8 9 11 11 11 12 12 13 15 17 18 18 19 20 20 21 21 21 21 21 23 23 23 24 25 26 26 26 26 25 25 25 24 22 22 22 22 24 25 25 26 27 27 27 27 28 29 32 34 34 34 35 37 38 39 40 41 42 43 44 44 45 45 46 46 46 46 46 45 45 45 45
2 2 2 2 3 4 5 5 5 5 5 5 6 6 7 8 9 9 9 9 10 12 14 15 16 17 18 18 19 20 20 20 20 21 22 22 23 24 24 25 24 24 23 24 24 24 22 22 23 24 25 26 26 26 26 27 27 27 28 29 30 30 31 32 32 33 35 35 36 37 37 38 39 39 40 40 40 41 41 41 41 41 42 42 42
2 3 4 4 4 5 6 7 7 7 6 5 4 5 5 6 6 7 7 6 7 9 11 12 13 14 15 15 16 18 19 19 19 20 20 21 21 21 22 23 22 22 22 23 23 23 23 23 23 24 25 25 25 25 25 25 26 26 26 27 27 28 28 29 28 30 32 33 34 35 35 35 36 36 36 37 37 37 38 38 38 38 38 38 38
5 4 4 5 5 6 6 7 8 8 8 8 6 5 5 5 5 5 5 5 5 6 7 8 9 10 11 12 13 15 17 18 18 18 18 18 19 19 20 20 20 20 20 21 22 22 22 22 22 23 23 23 23 23 23 23 24 24 24 24 25 25 26 26 25 25 28 30 31 32 32 33 33 34 34 34 34 34 35 35 36 36 36 36 36
7 7 6 6 6 6 6 6 7 7 8 10 10 8 7 6 5 5 5 5 5 5 5 6 6 7 8 9 10 12 13 15 15 16 15 16 16 16 17 18 18 18 18 19 19 19 19 19 20 20 20 21 21 20 20 21 21 21 21 21 22 22 22 23 22 21 22 24 26 28 29 29 30 30 31 31 31 31 31 32 32 33 33 34 34
9 9 10 9 8 7 7 7 7 6 7 9 11 11 10 9 8 7 6 6 6 6 6 5 6 6 5 6 7 8 10 11 12 13 13 13 13 14 14 15 16 16 16 16 16 16 16 16 17 17 17 17 17 17 17 17 17 17 17 17 17 18 18 18 18 18 18 19 20 22 24 25 26 27 27 28 28 28 28 29 29 29 30 30 30
12 11 11 12 11 10 9 8 7 7 7 8 10 11 11 11 11 9 8 8 7 7 7 6 6 6 6 5 4 4 6 7 8 9 10 10 11 11 12 12 13 14 14 14 13 13 13 13 14 14 14 14 14 14 14 13 13 13 14 14 14 14 14 14 15 15 16 16 16 16 18 20 21 22 23 24 25 25 26 26 26 27 27 27 27
15 14 13 14 14 13 12 11 10 9 8 9 9 10 11 12 12 12 11 11 10 9 8 7 6 5 5 5 4 4 3 3 4 5 6 7 7 8 9 10 11 12 13 13 12 12 12 11 11 11 11 11 11 11 10 10 10 10 10 10 10 10 10 10 11 12 12 14 14 14 15 16 16 17 18 18 19 20 22 22 23 23 24 24 24
18 16 16 16 16 16 15 14 13 12 12 11 11 11 11 11 12 14 14 13 13 12 12 10 8 7 6 5 4 3 3 3 2 3 3 3 3 4 5 7 9 10 11 12 12 12 11 11 10 10 9 9 9 8 8 7 7 6 6 6 6 7 7 7 7 8 9 10 11 11 12 13 13 14 14 14 14 15 16 18 19 19 20 20 21
19 19 20 19 19 19 19 18 17 16 15 15 14 14 14 13 12 13 14 15 15 15 15 14 12 11 9 8 7 5 3 3 3 2 2 1 1 0 2 3 5 7 9 11 12 12 12 11 11 11 10 9 9 8 8 7 6 5 4 3 3 3 3 4 4 5 6 6 7 8 9 9 10 11 12 12 12 13 13 14 16 16 17 17 18
23 23 24 24 22 22 22 22 20 18 17 17 16 16 16 16 15 15 15 16 16 17 17 17 16 15 14 13 11 9 6 4 4 3 2 2 3 3 4 4 4 5 7 9 10 11 12 12 12 12 12 11 11 10 10 9 8 7 6 4 2 1 1 2 3 4 5 5 6 7 8 8 9 10 10 11 12 12 13 14 14 15 15 16 16
28 28 28 28 26 24 24 24 22 20 20 20 19 18 18 18 18 18 17 17 17 18 18 18 18 18 17 16 15 14 11 8 6 5 5 6 6 6 7 7 7 7 8 9 10 11 12 13 13 13 13 13 13 13 13 12 11 11 10 8 7 6 5 5 5 6 6 7 7 8 8 9 9 10 11 12 13 13 14 14 15 14 15 15 15
34 34 33 32 31 29 27 25 24 23 24 25 24 23 22 21 20 20 20 20 20 19 19 19 19 20 19 18 18 17 16 14 11 8 8 8 9 9 9 9 10 10 11 11 12 12 13 14 15 15 16 16 16 16 16 16 15 15 14 13 12 11 10 10 9 9 10 10 10 10 10 11 11 11 12 13 14 14 15 15 16 16 15 15 15
37 37 36 35 34 33 30 28 26 27 28 29 28 27 26 26 24 23 23 23 22 22 21 21 21 21 21 21 20 20 19 17 14 13 12 12 12 12 11 11 12 12 12 13 13 13 14 14 16 17 18 18 19 19 20 20 19 19 18 18 17 16 14 14 13 13 13 14 14 13 13 14 14 14 14 15 15 15 15 16 16 17 17 16 16
39 37 35 35 36 35 34 32 30 30 31 31 29 30 30 29 28 28 26 25 25 25 24 24 23 23 23 24 24 23 21 19 17 16 16 15 15 14 13 12 12 12 13 14 14 13 14 15 16 17 18 19 21 22 23 23 23 23 22 22 22 21 19 18 18 18 18 18 18 17 17 18 18 18 18 19 19 18 18 17 17 17 18 18 19
40 36 34 36 37 36 36 35 32 32 33 32 32 33 33 31 30 31 31 29 27 26 27 27 26 26 27 27 26 26 24 21 19 19 19 18 17 16 15 14 13 14 14 14 13 13 15 16 16 17 18 19 20 21 23 24 26 26 25 24 25 25 24 23 22 22 22 22 22 22 21 20 21 21 20 20 21 21 21 21 19 19 19 20 21
40 36 36 39 40 38 38 38 36 35 36 36 36 37 35 33 33 34 35 34 31 28 28 28 28 30 32 31 30 30 29 26 23 21 20 20 19 18 17 16 15 15 15 13 12 12 14 16 16 16 16 18 19 20 21 22 24 26 26 25 25 26 25 24 23 23 23 23 24 25 24 23 23 23 22 22 21 22 23 24 23 22 22 22 23
40 39 39 41 41 40 40 41 41 41 41 40 39 39 37 36 37 37 38 39 36 32 30 29 31 34 36 35 34 34 33 30 27 25 24 23 21 20 19 19 18 17 15 15 15 14 15 15 15 15 16 18 19 20 20 21 22 23 24 24 24 23 22 22 23 24 23 22 24 26 26 25 24 23 25 25 24 23 24 25 25 25 24 24 24
Wind_Direction
211 208 212 217 211 204 215 231 240 248 244 234 222 213 230 262 294 313 318 312 313 323 337 354 357 17 34 348 347 352 351 346 346 350 357 359 2 11 17 22 24 22 18 14 15 18 22 23 23 25 24 24 24 21 17 12 13 15 18 19 16 16 16 17 16 14 16 17 31 59 64 56 47 33 28 26 27 30 29 28 32 40 46 49 51
213 210 215 221 222 218 224 234 240 245 245 234 228 238 261 282 299 307 304 302 313 331 359 18 20 44 353 337 340 349 352 350 352 353 359 4 7 15 20 25 28 25 20 17 19 22 24 25 25 26 25 25 26 24 20 15 14 15 18 20 18 17 16 17 17 15 15 15 23 52 70 66 56 51 45 38 37 39 40 38 39 45 51 55 58
222 224 226 229 229 228 232 237 239 242 246 242 240 249 265 281 293 296 293 301 328 19 56 53 66 34 331 327 336 349 357 357 360 358 3 11 14 19 24 29 30 26 23 21 22 24 26 27 26 25 25 25 26 26 24 20 17 17 18 19 19 17 15 16 18 17 16 20 24 40 65 69 64 64 59 49 48 49 50 49 46 49 54 60 64
221 227 230 230 228 227 228 230 234 238 243 245 249 257 269 279 284 284 291 333 53 79 81 72 56 3 325 327 337 353 6 3 4 3 8 19 22 25 30 32 31 29 27 27 26 26 27 28 28 25 25 26 26 25 25 23 21 19 18 19 19 18 16 16 18 19 18 24 30 40 64 71 73 73 69 60 56 56 56 56 55 55 58 62 67
198 209 213 215 214 217 219 224 229 235 245 254 260 266 271 273 270 269 53 72 84 79 73 65 38 354 333 336 346 360 13 10 10 12 15 22 27 32 37 35 32 30 33 33 30 28 27 28 28 26 25 26 27 26 24 23 22 21 20 19 19 19 17 16 17 19 21 26 33 45 64 72 79 81 76 69 63 61 60 60 61 62 63 65 69
139 158 173 186 197 207 214 222 230 239 252 254 253 252 239 156 90 84 80 76 70 66 64 58 23 349 348 349 354 4 16 19 17 18 20 27 37 41 40 37 33 34 38 38 34 30 26 26 26 26 25 25 28 28 26 23 22 22 22 19 19 20 19 17 17 18 23 28 33 44 61 73 82 85 80 74 68 65 63 62 64 66 66 70 73
100 106 113 126 143 159 168 178 184 193 200 181 159 144 116 96 83 77 80 72 59 61 59 38 4 353 355 356 359 8 20 26 25 27 30 36 50 50 44 40 37 38 41 38 34 30 26 23 22 23 23 23 27 29 28 26 23 21 22 21 19 21 21 19 18 18 23 29 31 39 55 74 85 88 85 80 74 70 67 64 65 67 68 73 79
94 95 98 102 105 110 116 119 123 126 128 127 117 99 89 91 93 80 72 73 62 54 38 17 8 1 2 3 5 14 24 28 31 41 48 50 54 53 47 43 39 41 42 36 32 30 26 22 18 18 20 21 22 25 27 26 23 21 21 22 19 20 22 21 19 18 23 29 31 36 51 75 88 91 90 87 80 75 72 68 67 68 70 74 80
91 93 95 96 97 100 103 103 104 97 90 93 93 85 80 83 91 83 69 68 50 30 27 21 16 13 16 12 9 18 26 31 42 57 62 63 61 57 54 48 42 43 41 35 30 28 25 22 18 16 17 19 18 18 21 23 22 20 20 21 20 19 21 23 22 20 22 27 31 36 51 80 94 98 97 92 85 79 76 73 70 69 70 73 77
87 89 90 91 93 93 94 93 94 91 86 86 86 86 86 78 76 71 57 53 39 26 33 31 24 23 22 10 8 22 34 45 62 70 64 64 68 63 58 53 47 45 42 36 31 27 25 22 21 20 17 15 14 12 13 16 20 19 18 20 21 19 19 22 24 22 21 25 30 36 54 89 104 105 103 97 90 86 82 77 73 71 71 72 76
84 85 86 87 88 89 90 90 92 96 96 92 85 83 83 78 72 65 45 37 32 33 35 30 21 16 16 9 17 43 58 68 75 79 75 68 66 62 58 57 51 44 40 36 31 29 26 24 24 23 19 15 10 9 9 10 15 17 16 18 21 19 17 20 24 23 21 24 29 35 55 89 108 110 106 102 97 91 86 81 77 74 72 73 76
81 82 83 84 86 87 89 91 91 90 87 86 84 81 78 70 69 69 55 33 9 20 20 16 15 14 27 32 48 70 76 80 82 82 81 71 65 59 54 56 55 47 42 38 33 31 29 29 28 25 20 17 12 9 9 7 11 15 15 16 20 22 19 17 21 22 21 23 28 35 54 84 104 113 111 106 102 97 91 85 81 76 73 74 79
78 79 81 82 84 86 86 88 90 87 81 80 78 72 66 57 51 50 47 31 10 12 13 20 32 37 47 53 68 81 77 77 81 82 83 77 66 57 49 50 51 50 48 44 37 30 31 36 36 29 20 17 14 11 11 10 10 13 14 15 19 23 22 18 19 21 21 23 26 35 57 81 95 112 117 112 106 102 97 93 86 80 77 78 84
74 76 77 78 79 79 80 79 81 81 76 71 67 61 56 51 46 40 32 24 23 23 21 27 39 47 59 63 68 84 84 77 79 82 83 76 65 59 55 51 46 49 51 48 42 34 32 38 40 33 23 19 16 14 16 14 13 13 12 14 18 23 25 21 19 20 22 24 26 35 59 80 88 104 118 119 113 106 102 98 91 84 83 85 89
71 72 73 74 74 74 74 73 72 72 69 64 60 55 50 44 41 41 29 22 25 26 29 34 41 49 61 62 67 86 90 86 79 71 68 63 58 59 59 56 49 52 58 54 46 38 34 34 35 32 30 29 23 20 21 18 17 15 11 12 17 21 24 24 21 20 22 25 27 38 63 79 83 94 110 121 120 111 105 100 94 91 91 92 94
71 71 71 71 72 72 71 72 71 70 67 63 59 53 49 43 40 40 29 28 31 32 41 46 46 51 64 68 71 82 88 85 72 58 57 55 54 57 60 58 53 51 57 57 44 36 35 35 34 30 29 30 22 19 24 22 21 17 11 11 16 18 22 25 25 21 22 27 28 41 69 81 81 87 99 115 124 120 112 105 100 98 97 98 99
74 72 73 72 72 73 72 73 74 74 72 69 69 66 60 56 50 46 39 40 44 45 50 54 54 60 71 75 72 77 83 76 63 52 49 50 53 58 58 58 57 55 55 54 44 36 36 33 32 27 22 22 17 19 24 25 25 19 11 11 14 16 19 23 26 24 24 28 30 45 73 84 81 83 90 105 121 126 123 113 107 104 103 103 103
76 76 76 76 76 76 77 77 78 80 82 81 79 74 69 67 62 56 51 50 53 52 55 60 63 65 72 75 74 75 76 64 56 52 46 44 50 55 56 56 58 61 60 54 45 44 44 35 30 26 20 18 17 20 26 27 26 21 13 12 13 14 17 21 24 25 27 29 32 49 75 84 81 80 83 95 112 125 130 124 116 111 108 107 107
77 78 78 79 80 80 81 81 82 83 84 84 81 79 74 73 70 66 62 61 61 60 62 63 66 69 72 74 75 75 78 73 63 59 53 48 48 49 52 53 56 58 56 51 46 48 49 38 26 23 18 16 15 20 26 27 27 24 16 11 11 13 16 19 22 26 30 33 37 53 74 82 79 77 79 86 100 117 129 131 126 119 114 112 111
75 77 79 80 81 82 83 83 84 84 84 84 83 82 78 75 73 70 67 66 65 64 65 65 66 68 68 70 74 76 82 83 75 65 57 52 49 47 46 46 52 53 48 50 50 42 42 39 24 14 13 15 17 21 22 20 22 27 21 11 10 13 17 20 24 30 36 39 45 59 74 78 76 74 76 81 92 106 122 133 134 130 123 118 114
69 72 74 77 79 81 82 82 84 84 85 84 83 81 78 75 73 71 70 69 67 67 66 67 66 65 65 66 68 70 73 76 76 69 62 57 53 54 54 47 45 47 47 49 46 34 36 37 19 11 17 18 18 21 21 20 20 24 23 14 10 15 21 24 29 37 44 48 54 64 73 74 72 71 73 78 86 98 112 126 134 137 134 128 121
63 65 67 69 73 76 78 80 83 83 82 82 81 80 78 76 73 72 71 69 68 67 66 66 66 63 63 64 64 64 64 66 68 65 61 60 59 57 57 54 43 39 41 41 42 41 38 35 26 22 23 21 23 25 25 26 22 22 25 18 14 20 26 31 38 45 52 56 61 66 70 71 69 69 71 75 82 91 102 114 125 132 135 134 130
59 60 61 63 66 70 73 76 80 80 79 78 78 78 77 75 73 71 70 69 68 66 64 64 65 64 63 65 65 64 64 64 66 68 64 64 66 61 54 54 48 36 38 43 44 42 39 40 38 31 26 26 32 34 32 30 24 24 29 24 22 28 34 40 47 53 59 62 64 67 67 68 67 67 70 73 79 86 95 104 112 119 123 128 129
56 57 58 60 62 65 68 72 75 75 75 75 75 74 73 71 70 69 67 67 66 65 63 63 64 64 63 64 66 65 66 67 68 70 71 71 75 74 63 61 60 47 42 46 44 46 54 51 43 39 36 35 40 40 40 36 28 28 34 33 34 39 43 49 54 58 61 64 65 66 66 66 66 66 69 72 76 81 88 94 101 107 112 116 119
53 55 57 58 59 62 64 67 70 71 71 71 71 70 69 68 67 66 66 65 64 64 64 64 64 64 63 63 64 65 66 68 69 70 73 74 76 76 70 63 65 61 52 51 47 48 57 55 48 48 44 43 49 48 43 38 35 38 41 43 45 48 51 55 58 61 62 64 65 66 66 66 66 66 67 69 72 76 81 87 92 97 101 105 108
53 52 54 56 58 60 61 63 65 67 68 69 69 68 68 67 66 66 66 65 64 64 64 65 66 66 65 64 64 64 66 67 68 70 74 75 73 74 74 65 66 68 63 66 64 57 62 64 51 43 42 47 54 55 50 47 47 50 49 50 52 55 57 58 60 63 63 65 65 66 66 66 67 67 67 68 69 71 75 78 83 87 91 95 98
53 52 52 53 55 58 59 61 63 64 66 67 67 67 67 67 67 67 67 66 66 65 65 66 68 69 69 68 68 68 69 69 70 71 74 78 78 81 82 76 74 71 64 68 69 68 78 75 52 43 54 58 56 55 56 53 52 54 54 54 56 58 61 61 62 64 64 65 65 66 67 67 67 68 68 68 68 69 70 72 75 79 82 86 89
52 54 54 52 53 55 57 59 60 63 65 66 66 66 66 66 67 68 68 68 68 68 68 68 70 71 71 72 72 72 73 74 74 74 77 81 83 85 87 86 85 81 75 75 74 76 86 85 81 84 75 66 59 55 55 54 54 57 59 60 60 60 62 62 63 64 64 65 65 66 67 67 68 68 69 69 70 70 71 71 73 75 77 80 83
62 60 57 53 53 53 55 57 58 60 63 66 66 65 65 65 65 66 67 68 69 70 70 71 72 72 73 74 75 76 76 77 77 78 79 81 83 83 84 85 86 84 82 83 82 81 84 86 89 88 77 69 66 60 57 60 60 59 61 63 63 62 62 63 63 64 64 65 65 66 67 67 68 68 69 70 71 72 73 74 74 75 77 79 81
79 70 62 56 54 53 53 54 56 57 59 62 64 65 65 64 62 61 62 64 68 70 70 73 74 75 75 76 76 77 77 78 79 79 79 80 79 80 81 81 82 82 82 83 83 79 77 80 83 82 77 72 68 63 61 67 67 65 65 65 64 64 63 63 63 64 64 65 65 66 67 67 68 68 69 70 71 72 74 75 76 78 79 80 81
85 76 68 61 56 53 51 52 52 54 55 58 61 62 63 64 61 59 59 59 62 67 70 73 74 75 76 77 77 78 78 79 79 79 79 79 79 79 81 82 82 82 83 84 83 79 76 78 79 80 81 77 73 71 67 69 71 71 69 66 65 65 65 65 65 65 65 65 66 67 67 68 68 69 70 70 71 72 74 75 77 78 80 81 82
90 85 72 64 57 52 51 50 49 50 50 52 55 57 60 63 62 58 57 56 57 62 67 69 72 75 76 77 77 78 79 79 80 80 80 81 82 83 84 85 85 84 84 83 83 82 80 79 80 81 83 79 75 75 73 72 73 71 69 67 66 66 66 65 67 67 67 67 67 67 68 69 69 70 71 71 72 72 73 74 76 77 79 80 81
95 94 75 56 50 45 45 47 48 47 47 48 49 50 54 60 61 58 55 52 53 58 62 63 67 71 74 75 76 77 79 80 81 81 81 82 84 85 85 86 86 86 85 84 84 85 84 83 84 83 82 79 78 80 80 79 76 71 68 69 70 70 69 69 69 69 69 68 68 68 68 69 69 70 71 71 72 72 73 73 74 75 76 78 79
78 61 41 33 23 18 20 28 36 40 43 47 47 45 47 53 57 58 55 49 48 53 57 58 60 63 68 71 74 75 76 78 81 83 83 84 85 87 88 88 88 88 87 87 88 89 89 90 89 86 85 86 88 87 85 82 79 75 73 74 75 74 74 74 71 70 70 70 69 69 68 68 68 69 70 70 70 71 72 72 72 73 74 74 75
23 11 353 350 346 346 353 357 2 13 23 34 39 37 39 44 47 51 53 49 45 49 52 55 57 59 61 64 68 72 75 76 79 82 84 85 87 90 92 93 94 94 94 95 96 96 96 96 95 93 92 92 91 89 86 83 82 80 79 79 78 76 75 73 70 69 70 70 69 69 68 68 68 68 68 68 69 69 70 70 71 72 72 72 73
314 331 330 333 336 334 338 341 342 345 350 359 14 21 26 31 32 37 43 43 41 43 47 50 55 58 59 61 63 69 73 75 77 81 85 88 90 93 96 98 100 103 104 106 105 104 103 102 101 99 96 94 92 89 87 84 82 82 81 78 77 76 75 72 70 69 69 69 69 68 67 67 67 66 67 66 66 67 67 67 68 68 68 68 69
273 291 306 316 323 323 325 328 331 333 334 336 340 348 358 7 12 13 19 25 28 32 38 43 49 56 60 63 65 68 73 75 77 80 84 90 94 98 101 104 107 111 114 115 114 112 110 110 108 105 101 97 94 90 86 84 82 80 79 77 76 75 73 72 70 67 66 66 68 67 66 66 65 65 65 64 64 64 64 63 63 63 63 63 64
268 276 283 292 301 306 308 312 317 320 323 325 327 329 332 337 346 348 350 354 358 8 19 24 32 44 54 63 68 71 73 75 76 78 82 89 95 100 105 110 114 118 122 123 121 118 115 114 112 110 107 102 98 93 89 86 84 81 79 76 74 73 72 71 67 63 62 61 63 65 65 64 63 63 62 61 60 60 59 59 59 59 59 59 59
269 277 280 282 283 286 289 295 302 304 305 310 312 317 319 320 323 328 330 332 334 342 353 2 6 13 25 45 62 72 75 76 77 78 81 86 95 103 109 115 120 124 127 129 128 125 122 121 119 117 113 109 105 100 96 92 89 87 83 80 77 75 73 71 67 65 63 60 58 59 60 61 61 60 59 58 56 54 53 53 53 53 53 53 53
264 270 275 279 280 277 274 276 282 286 285 288 295 302 306 308 310 311 313 317 319 324 331 341 348 350 353 2 19 52 72 81 82 83 86 89 96 106 114 121 127 132 135 137 138 138 136 134 132 129 125 121 117 111 107 102 97 92 89 85 82 79 74 71 68 66 63 61 59 57 57 57 56 55 55 54 53 51 48 47 47 46 46 46 46
263 266 267 271 273 272 269 265 266 268 271 275 281 289 295 299 301 301 301 305 307 310 312 315 321 325 327 333 339 352 15 52 74 82 89 95 102 111 122 130 138 143 148 151 152 153 154 153 150 147 144 139 135 130 124 118 109 101 94 88 83 79 75 71 67 63 60 59 59 57 56 55 53 51 51 50 49 47 44 42 41 40 40 40 40
261 265 265 266 266 266 266 263 260 259 260 265 271 278 286 291 294 296 297 298 300 302 303 303 303 302 299 300 304 311 323 338 7 45 64 77 100 116 128 141 150 158 163 167 168 169 171 172 171 170 168 166 164 159 153 146 137 126 111 97 87 78 71 65 61 58 56 54 53 51 49 48 47 46 43 40 39 39 35 32 30 29 30 31 31
256 262 264 265 264 264 262 259 258 258 257 262 268 274 278 281 285 290 292 293 294 295 297 301 301 298 294 292 290 283 280 291 300 328 11 8 330 217 177 170 172 176 180 184 186 187 188 189 190 191 191 192 194 194 191 187 181 172 158 138 110 77 57 46 42 44 43 42 41 38 34 32 31 30 27 25 24 24 21 17 16 15 14 14 16
252 258 262 264 263 263 260 255 254 258 259 263 268 272 275 276 278 281 284 286 288 288 290 295 298 299 297 295 294 293 285 271 257 252 256 259 262 261 249 233 221 212 207 205 205 206 208 208 209 210 211 213 216 219 220 221 221 219 218 218 223 249 308 342 354 3 10 9 4 6 8 7 4 3 3 3 3 5 4 1 2 3 0 360 1
253 258 262 264 261 260 259 255 252 257 263 267 270 270 272 272 273 275 277 278 281 282 284 287 290 293 294 294 295 297 296 288 271 255 246 241 241 246 247 244 241 236 232 227 225 224 226 227 227 227 227 230 232 235 238 240 242 243 244 246 253 260 266 278 291 304 321 332 333 336 339 338 336 338 339 340 342 344 346 347 348 349 348 348 348
255 260 264 266 262 257 256 254 254 259 264 266 269 271 272 272 272 273 274 272 273 274 276 278 280 283 287 289 290 291 292 290 286 277 265 254 247 243 243 244 244 243 242 238 234 233 236 239 241 242 242 243 244 246 249 251 253 256 257 258 261 262 264 270 276 281 290 299 307 314 317 317 317 318 319 320 323 327 331 333 333 334 335 334 334
255 260 263 266 265 259 254 253 254 258 261 262 266 270 273 275 277 278 276 272 270 269 270 272 274 275 278 279 281 283 282 281 282 281 273 263 255 248 243 243 243 246 250 252 248 244 244 247 249 251 252 253 254 256 257 258 259 261 263 266 267 266 266 269 273 275 279 283 289 295 300 303 307 308 306 305 306 309 314 318 319 321 322 322 322
255 258 260 262 263 259 255 253 252 254 258 262 266 269 272 274 277 279 278 275 270 268 268 270 272 274 273 272 272 272 269 267 270 271 267 262 258 253 248 246 246 248 252 256 256 254 253 254 253 254 256 257 259 260 262 263 263 264 265 267 270 271 271 271 273 276 278 280 282 285 289 292 295 299 300 300 299 299 301 302 304 306 309 310 311
254 256 256 257 257 254 254 255 254 256 260 263 266 268 269 271 273 274 275 274 271 268 268 268 269 271 269 267 267 266 262 258 258 259 260 262 262 259 254 251 250 248 248 252 254 255 256 256 254 256 259 261 262 263 264 266 267 266 266 266 268 270 271 272 273 274 275 278 279 282 285 286 287 289 292 294 296 297 297 297 297 297 298 299 301
252 251 251 254 255 254 255 256 258 259 260 260 260 262 264 266 268 269 269 269 268 266 265 265 265 265 263 261 261 261 259 256 254 255 258 262 263 264 262 258 255 253 252 255 257 260 264 262 258 259 262 263 264 265 267 268 270 271 271 269 267 268 270 271 271 270 271 273 275 278 279 279 280 282 283 283 285 288 291 294 295 295 295 296 296
249 246 247 251 255 257 257 258 259 260 260 260 258 257 258 259 261 262 263 264 263 262 259 257 256 257 256 255 255 255 256 256 257 258 259 258 259 262 262 260 257 256 256 258 258 261 269 272 269 269 269 269 268 270 271 273 274 276 277 275 273 273 274 273 271 269 266 265 267 271 273 272 273 276 278 279 279 278 280 284 287 289 291 291 291
Height
10967 10969 10970 10972 10973 10974 10974 10975 10976 10976 10977 10978 10978 10977 10976 10976 10975 10974 10974 10974 10973 10972 10971 10970 10970 10970 10970 10970 10970 10969 10969 10968 10967 10965 10964 10963 10961 10960 10958 10957 10955 10954 10952 10950 10948 10946 10944 10943 10941 10939 10938 10936 10934 10932 10931 10929 10926 10925 10923 10921 10919 10917 10915 10912 10909 10906 10904 10903 10902 10900 10898 10896 10892 10889 10888 10886 10883 10879 10874 10869 10861 10852 10840 10828 10817
10968 10970 10971 10973 10974 10975 10975 10975 10975 10976 10977 10977 10977 10976 10976 10975 10975 10975 10975 10974 10973 10972 10972 10972 10971 10971 10971 10971 10971 10970 10970 10969 10967 10966 10965 10963 10962 10960 10959 10958 10956 10955 10953 10951 10949 10947 10945 10944 10942 10940 10939 10937 10936 10934 10932 10930 10928 10925 10924 10922 10920 10918 10916 10913 10911 10908 10905 10903 10902 10901 10899 10897 10894 10892 10890 10888 10885 10883 10878 10874 10868 10860 10850 10841 10833
10969 10970 10972 10973 10974 10975 10976 10975 10976 10976 10977 10978 10977 10977 10976 10976 10976 10975 10975 10974 10973 10973 10973 10973 10972 10972 10972 10972 10971 10971 10971 10970 10968 10967 10965 10964 10963 10961 10960 10959 10957 10956 10954 10952 10950 10948 10947 10945 10944 10942 10941 10939 10937 10936 10934 10931 10929 10926 10924 10922 10920 10918 10916 10914 10912 10909 10906 10904 10902 10901 10899 10898 10896 10894 10892 10890 10888 10886 10882 10879 10875 10868 10861 10853 10847
10970 10971 10972 10973 10974 10975 10976 10976 10976 10977 10977 10978 10978 10978 10977 10977 10977 10976 10975 10974 10974 10974 10974 10974 10973 10973 10973 10972 10972 10972 10971 10970 10969 10967 10966 10964 10963 10962 10961 10960 10959 10957 10956 10954 10952 10950 10948 10947 10945 10943 10942 10940 10939 10937 10935 10933 10930 10928 10926 10923 10921 10919 10917 10915 10913 10911 10908 10905 10903 10902 10901 10899 10897 10896 10894 10893 10892 10889 10886 10884 10881 10876 10871 10865 10860
10972 10973 10973 10974 10975 10975 10976 10977 10977 10978 10978 10978 10978 10978 10978 10978 10977 10976 10976 10975 10975 10975 10975 10975 10974 10974 10974 10973 10973 10972 10972 10971 10969 10968 10966 10965 10964 10963 10962 10961 10960 10959 10957 10955 10954 10952 10950 10948 10947 10945 10943 10942 10940 10939 10937 10935 10932 10930 10927 10925 10922 10920 10918 10916 10914 10912 10909 10906 10904 10902 10902 10900 10899 10898 10896 10896 10895 10892 10889 10888 10886 10883 10879 10875 10871
10974 10974 10974 10975 10975 10976 10976 10977 10977 10978 10978 10979 10979 10979 10979 10978 10978 10977 10977 10977 10977 10977 10976 10976 10975 10975 10974 10974 10973 10973 10972 10971 10970 10968 10967 10966 10966 10964 10963 10962 10961 10960 10959 10957 10955 10954 10952 10950 10948 10947 10945 10943 10942 10940 10938 10937 10934 10932 10929 10926 10924 10921 10919 10917 10915 10913 10910 10907 10905 10903 10903 10902 10900 10900 10899 10898 10897 10895 10893 10891 10890 10888 10886 10884 10881
10976 10976 10976 10976 10976 10977 10977 10978 10978 10979 10980 10980 10980 10980 10979 10979 10979 10979 10978 10978 10978 10978 10977 10977 10976 10975 10975 10974 10974 10973 10973 10972 10970 10969 10968 10968 10967 10966 10965 10964 10963 10962 10960 10959 10957 10955 10954 10952 10950 10948 10946 10945 10943 10942 10940 10938 10936 10933 10931 10928 10926 10923 10921 10919 10916 10914 10911 10909 10907 10905 10904 10903 10902 10901 10901 10900 10899 10898 10896 10895 10894 10893 10892 10890 10889
10978 10978 10979 10978 10978 10978 10979 10979 10980 10981 10981 10981 10981 10980 10980 10981 10981 10980 10980 10979 10979 10979 10978 10978 10977 10976 10975 10975 10974 10974 10973 10972 10971 10970 10969 10968 10968 10967 10966 10965 10964 10963 10962 10960 10958 10957 10955 10954 10952 10950 10948 10946 10945 10943 10941 10939 10937 10935 10932 10930 10927 10925 10922 10920 10917 10915 10913 10910 10908 10906 10905 10905 10904 10903 10903 10902 10902 10901 10900 10899 10898 10897 10896 10895 10894
10979 10980 10980 10980 10980 10980 10980 10981 10982 10982 10981 10981 10982 10982 10982 10982 10981 10981 10981 10980 10979 10979 10979 10978 10977 10977 10976 10976 10975 10974 10973 10972 10971 10970 10969 10969 10968 10968 10967 10966 10965 10964 10963 10962 10960 10958 10957 10955 10953 10951 10949 10948 10946 10944 10942 10940 10938 10936 10934 10931 10929 10926 10924 10921 10919 10916 10914 10912 10910 10908 10907 10906 10905 10905 10905 10904 10904 10903 10903 10902 10901 10900 10900 10899 10899
10981 10981 10981 10981 10981 10982 10982 10982 10983 10983 10982 10983 10984 10984 10983 10983 10982 10982 10981 10981 10981 10980 10979 10979 10978 10978 10977 10976 10975 10974 10974 10973 10972 10971 10970 10970 10969 10969 10968 10967 10966 10965 10964 10963 10961 10959 10957 10956 10955 10953 10951 10949 10947 10945 10943 10941 10939 10937 10935 10932 10930 10927 10925 10923 10920 10918 10916 10914 10912 10910 10908 10907 10907 10907 10906 10906 10906 10906 10905 10905 10904 10904 10903 10902 10902
10983 10983 10983 10983 10983 10983 10983 10983 10984 10984 10983 10984 10984 10984 10984 10983 10983 10983 10982 10982 10982 10981 10980 10980 10979 10979 10978 10977 10976 10975 10974 10973 10972 10971 10971 10971 10970 10970 10969 10968 10967 10966 10965 10964 10962 10960 10958 10957 10956 10954 10952 10951 10949 10947 10944 10942 10940 10938 10936 10934 10931 10929 10926 10924 10922 10920 10917 10915 10913 10911 10910 10909 10909 10908 10908 10908 10908 10908 10908 10907 10907 10906 10906 10906 10905
10985 10984 10985 10985 10985 10985 10985 10986 10985 10985 10984 10985 10985 10986 10985 10985 10985 10985 10984 10983 10983 10982 10981 10980 10980 10979 10978 10977 10976 10975 10974 10973 10972 10972 10972 10972 10971 10971 10970 10968 10967 10967 10965 10965 10964 10961 10959 10958 10957 10955 10954 10953 10951 10948 10946 10944 10942 10939 10937 10935 10932 10930 10927 10925 10923 10921 10919 10917 10915 10913 10911 10910 10910 10910 10910 10910 10910 10910 10910 10910 10910 10909 10909 10909 10908
10987 10987 10987 10987 10988 10988 10988 10988 10987 10987 10987 10987 10988 10988 10987 10987 10987 10986 10986 10985 10984 10983 10982 10981 10980 10979 10978 10977 10976 10976 10975 10974 10973 10973 10973 10972 10972 10971 10970 10968 10967 10967 10966 10965 10964 10963 10960 10959 10958 10957 10956 10954 10952 10949 10947 10945 10943 10941 10938 10936 10934 10931 10929 10927 10924 10923 10921 10918 10916 10914 10912 10911 10911 10911 10911 10911 10911 10911 10912 10912 10912 10912 10912 10911 10911
10990 10989 10989 10990 10990 10990 10990 10990 10990 10990 10990 10990 10989 10989 10989 10989 10989 10988 10987 10986 10985 10984 10983 10982 10981 10980 10979 10978 10977 10976 10976 10975 10974 10974 10974 10973 10972 10972 10971 10969 10968 10967 10966 10965 10965 10963 10962 10960 10959 10958 10957 10955 10952 10950 10948 10946 10944 10942 10939 10937 10935 10933 10930 10928 10926 10924 10922 10920 10918 10916 10914 10913 10912 10912 10912 10913 10913 10913 10913 10914 10914 10914 10914 10914 10914
10992 10992 10992 10992 10992 10992 10992 10992 10992 10992 10992 10991 10991 10991 10991 10990 10990 10989 10987 10986 10985 10984 10983 10982 10981 10981 10980 10979 10978 10977 10976 10976 10975 10975 10975 10974 10974 10973 10972 10970 10969 10968 10967 10966 10965 10964 10963 10962 10960 10959 10957 10954 10952 10951 10949 10947 10945 10943 10941 10938 10936 10934 10932 10930 10927 10925 10923 10922 10920 10918 10916 10914 10914 10913 10913 10914 10914 10915 10915 10915 10916 10916 10916 10916 10916
10994 10994 10993 10993 10993 10993 10993 10993 10993 10993 10993 10993 10993 10992 10992 10991 10990 10989 10988 10987 10985 10984 10983 10982 10982 10981 10980 10980 10979 10978 10977 10977 10977 10976 10976 10975 10975 10973 10973 10971 10970 10969 10968 10967 10966 10965 10964 10964 10962 10960 10957 10955 10953 10952 10949 10947 10946 10944 10942 10940 10937 10935 10933 10931 10929 10927 10925 10923 10922 10920 10918 10916 10916 10915 10915 10915 10916 10916 10917 10917 10917 10918 10918 10919 10919
10996 10995 10995 10995 10995 10995 10995 10995 10995 10995 10995 10995 10994 10993 10992 10991 10990 10990 10989 10988 10986 10985 10984 10983 10982 10982 10981 10980 10980 10980 10979 10978 10978 10977 10977 10976 10975 10974 10973 10972 10971 10970 10969 10969 10968 10967 10966 10965 10963 10961 10960 10958 10955 10953 10951 10949 10947 10945 10943 10941 10939 10937 10935 10933 10931 10928 10927 10925 10923 10922 10920 10919 10918 10917 10917 10917 10917 10918 10918 10919 10919 10920 10920 10920 10921
10998 10998 10997 10997 10997 10996 10996 10996 10996 10996 10996 10996 10995 10994 10993 10992 10991 10990 10989 10988 10986 10985 10984 10984 10983 10982 10982 10981 10981 10981 10980 10980 10979 10978 10977 10977 10976 10975 10974 10973 10972 10972 10971 10970 10969 10968 10967 10966 10964 10963 10961 10959 10957 10954 10951 10950 10949 10947 10945 10943 10941 10938 10936 10934 10932 10930 10928 10927 10925 10924 10922 10921 10920 10919 10919 10918 10918 10919 10920 10920 10921 10922 10922 10922 10923
11001 11000 11000 10999 10999 10998 10998 10998 10997 10997 10997 10996 10995 10995 10994 10992 10991 10990 10989 10988 10987 10986 10985 10984 10984 10983 10983 10982 10981 10981 10981 10981 10980 10979 10978 10978 10977 10976 10975 10974 10973 10973 10972 10972 10970 10969 10969 10968 10966 10964 10962 10960 10958 10955 10952 10951 10950 10948 10946 10945 10943 10940 10938 10936 10934 10932 10930 10929 10927 10926 10924 10923 10922 10921 10920 10920 10920 10920 10921 10922 10922 10923 10924 10924 10924
11004 11003 11002 11001 11001 11000 11000 10999 10999 10998 10998 10997 10996 10996 10995 10993 10992 10991 10990 10989 10988 10986 10986 10985 10984 10984 10983 10982 10982 10982 10981 10981 10980 10979 10979 10978 10978 10977 10976 10976 10975 10974 10973 10972 10972 10971 10970 10969 10967 10965 10963 10962 10959 10957 10954 10952 10951 10949 10948 10947 10945 10942 10940 10938 10936 10934 10932 10931 10929 10928 10927 10926 10924 10923 10922 10922 10922 10922 10922 10923 10924 10925 10925 10926 10926
11007 11006 11005 11004 11003 11002 11002 11001 11000 11000 10999 10998 10997 10996 10995 10994 10993 10992 10991 10990 10988 10987 10986 10986 10985 10985 10984 10983 10982 10982 10981 10981 10980 10980 10979 10979 10978 10978 10978 10977 10976 10975 10974 10974 10973 10973 10972 10971 10969 10967 10965 10963 10961 10960 10957 10955 10953 10952 10950 10949 10947 10944 10942 10940 10938 10936 10934 10933 10931 10930 10929 10928 10927 10925 10924 10924 10923 10924 10924 10924 10925 10926 10927 10927 10928
11010 11009 11008 11007 11006 11005 11004 11003 11002 11002 11001 11000 10999 10998 10997 10996 10995 10993 10992 10991 10990 10989 10988 10987 10986 10986 10985 10984 10983 10983 10982 10981 10981 10980 10980 10980 10980 10980 10980 10979 10978 10978 10977 10976 10975 10975 10974 10973 10971 10970 10968 10966 10964 10962 10960 10958 10956 10955 10952 10951 10949 10946 10944 10942 10940 10938 10937 10935 10934 10933 10932 10931 10929 10928 10927 10926 10926 10926 10926 10926 10927 10927 10928 10929 10929
11012 11011 11010 11009 11008 11008 11007 11006 11005 11004 11003 11002 11001 11000 10999 10998 10996 10995 10994 10993 10992 10991 10990 10989 10988 10987 10986 10985 10984 10984 10983 10982 10982 10981 10981 10981 10981 10982 10983 10982 10981 10980 10979 10978 10977 10976 10976 10976 10975 10972 10970 10968 10966 10964 10962 10960 10959 10957 10954 10953 10952 10949 10946 10944 10942 10940 10939 10938 10937 10936 10935 10933 10932 10931 10930 10929 10928 10928 10928 10928 10929 10929 10929 10930 10931
11015 11013 11013 11012 11011 11010 11009 11008 11007 11006 11005 11004 11003 11002 11001 11000 10999 10997 10996 10995 10994 10993 10992 10991 10989 10988 10988 10987 10986 10985 10984 10983 10983 10982 10982 10982 10982 10984 10985 10984 10983 10983 10981 10979 10978 10977 10977 10978 10978 10975 10972 10970 10968 10967 10965 10964 10962 10960 10957 10956 10954 10951 10949 10947 10945 10943 10942 10941 10940 10939 10938 10936 10935 10934 10933 10932 10931 10931 10931 10931 10931 10931 10931 10932 10932
11017 11016 11015 11014 11013 11013 11012 11011 11010 11009 11007 11006 11005 11005 11004 11002 11001 11000 10998 10997 10996 10995 10994 10993 10991 10990 10989 10989 10988 10987 10986 10985 10984 10984 10983 10983 10983 10984 10985 10985 10984 10984 10983 10981 10981 10979 10979 10979 10978 10976 10975 10973 10971 10970 10968 10967 10965 10964 10961 10959 10957 10955 10952 10950 10948 10946 10945 10944 10943 10942 10941 10939 10938 10937 10936 10935 10934 10934 10934 10934 10933 10933 10933 10933 10934
11019 11018 11017 11016 11015 11015 11014 11013 11012 11011 11010 11009 11008 11007 11006 11005 11004 11002 11001 11000 10999 10997 10996 10995 10993 10992 10991 10991 10990 10989 10988 10987 10986 10986 10985 10985 10985 10985 10986 10986 10986 10985 10984 10983 10982 10981 10980 10980 10979 10977 10977 10975 10973 10972 10972 10970 10969 10966 10964 10962 10960 10958 10956 10954 10952 10949 10948 10947 10946 10945 10944 10942 10941 10940 10939 10938 10938 10937 10937 10937 10936 10936 10936 10936 10936
11021 11020 11019 11018 11018 11017 11016 11015 11014 11013 11012 11011 11010 11009 11008 11007 11006 11005 11004 11003 11001 11000 10999 10997 10996 10995 10994 10993 10992 10991 10990 10989 10988 10988 10987 10987 10987 10987 10988 10988 10987 10986 10985 10984 10983 10982 10981 10982 10981 10980 10979 10977 10976 10976 10975 10974 10972 10970 10967 10967 10966 10962 10959 10958 10956 10954 10952 10951 10950 10949 10947 10946 10944 10943 10943 10942 10941 10941 10941 10940 10940 10940 10939 10939 10939
11023 11022 11021 11020 11019 11019 11018 11017 11016 11015 11014 11013 11012 11011 11010 11009 11008 11007 11006 11005 11004 11003 11002 11000 10999 10997 10996 10995 10994 10993 10992 10991 10991 10990 10989 10989 10989 10989 10988 10988 10987 10987 10986 10985 10984 10984 10983 10983 10983 10982 10981 10980 10979 10979 10979 10977 10976 10974 10972 10972 10971 10967 10964 10962 10960 10958 10956 10955 10954 10952 10951 10949 10948 10947 10946 10946 10945 10945 10945 10944 10944 10943 10943 10943 10942
11025 11023 11022 11022 11021 11020 11020 11019 11018 11017 11016 11015 11014 11013 11012 11012 11011 11010 11009 11008 11007 11006 11005 11003 11002 11000 10999 10998 10997 10996 10994 10994 10993 10992 10992 10991 10991 10990 10990 10989 10989 10988 10988 10987 10986 10987 10986 10985 10985 10985 10984 10983 10983 10983 10983 10981 10980 10979 10978 10977 10975 10971 10969 10967 10965 10963 10962 10960 10959 10957 10955 10954 10952 10951 10950 10950 10949 10949 10949 10948 10948 10947 10947 10947 10947
11025 11024 11023 11023 11022 11022 11021 11020 11019 11019 11018 11017 11015 11015 11014 11013 11013 11012 11011 11010 11009 11008 11007 11006 11005 11003 11002 11001 11000 10998 10997 10996 10995 10995 10994 10993 10993 10992 10991 10991 10991 10990 10989 10989 10989 10990 10990 10990 10989 10988 10988 10988 10986 10986 10987 10986 10984 10984 10983 10981 10978 10976 10974 10972 10971 10969 10967 10966 10964 10962 10961 10959 10957 10956 10955 10955 10954 10954 10953 10953 10952 10952 10952 10951 10951
11026 11025 11024 11024 11023 11023 11022 11021 11021 11020 11019 11018 11017 11016 11016 11015 11014 11013 11013 11012 11012 11011 11010 11009 11008 11006 11005 11004 11003 11001 11000 10999 10998 10997 10997 10996 10995 10995 10994 10993 10993 10993 10992 10992 10992 10993 10994 10994 10993 10991 10991 10991 10990 10990 10991 10990 10989 10988 10986 10985 10983 10980 10979 10978 10977 10975 10974 10972 10971 10969 10967 10965 10963 10962 10961 10960 10960 10959 10959 10958 10958 10957 10957 10956 10956
11027 11026 11025 11024 11024 11023 11023 11022 11022 11021 11020 11019 11018 11018 11017 11017 11016 11015 11014 11014 11014 11013 11012 11011 11010 11009 11008 11007 11005 11004 11003 11002 11001 11000 10999 10999 10998 10997 10997 10996 10996 10996 10996 10996 10995 10996 10997 10997 10997 10996 10995 10995 10995 10994 10994 10994 10993 10992 10989 10988 10987 10985 10985 10985 10984 10982 10981 10979 10977 10975 10974 10972 10970 10969 10968 10967 10966 10966 10965 10965 10964 10964 10963 10962 10962
11027 11027 11026 11025 11024 11024 11023 11023 11022 11022 11021 11020 11020 11020 11019 11018 11018 11017 11016 11015 11015 11015 11014 11013 11013 11012 11011 11010 11008 11007 11006 11005 11004 11003 11002 11002 11001 11001 11000 11000 11000 11000 11000 11000 10999 11000 11000 11000 11000 11000 10998 10998 10998 10998 10998 10998 10997 10995 10993 10993 10992 10991 10991 10992 10990 10989 10987 10985 10984 10982 10981 10979 10978 10977 10975 10975 10974 10973 10972 10972 10972 10971 10970 10970 10969
11028 11027 11027 11026 11025 11025 11024 11023 11023 11023 11022 11021 11021 11021 11020 11019 11019 11019 11018 11017 11017 11016 11016 11015 11014 11014 11013 11012 11011 11010 11009 11008 11007 11006 11005 11005 11004 11004 11004 11004 11004 11004 11004 11004 11004 11004 11004 11004 11004 11003 11002 11002 11002 11002 11002 11001 11000 10999 10998 10998 10997 10997 10996 10996 10995 10994 10992 10991 10990 10988 10987 10986 10985 10984 10983 10982 10981 10981 10980 10979 10979 10979 10978 10977 10977
11029 11028 11028 11027 11027 11026 11025 11024 11024 11023 11023 11022 11022 11021 11021 11021 11020 11020 11020 11019 11018 11017 11017 11016 11016 11015 11015 11014 11014 11013 11012 11012 11011 11010 11009 11008 11008 11007 11007 11007 11008 11007 11007 11007 11007 11006 11007 11006 11006 11006 11006 11005 11006 11005 11005 11004 11003 11003 11002 11002 11001 11001 11000 10999 10998 10998 10996 10995 10994 10993 10992 10992 10991 10990 10990 10989 10988 10988 10987 10986 10986 10986 10985 10984 10984
11030 11029 11029 11028 11028 11027 11027 11026 11025 11025 11024 11024 11023 11022 11022 11021 11021 11021 11020 11020 11019 11018 11018 11017 11017 11016 11016 11015 11015 11015 11015 11015 11014 11013 11012 11011 11011 11010 11010 11010 11010 11010 11009 11009 11009 11009 11009 11009 11009 11009 11009 11009 11008 11008 11007 11007 11006 11006 11005 11005 11004 11004 11003 11002 11002 11002 11001 10999 10998 10997 10997 10996 10996 10995 10995 10994 10994 10994 10993 10992 10992 10992 10991 10990 10990
11030 11030 11029 11029 11029 11028 11028 11027 11027 11026 11025 11025 11024 11024 11023 11023 11022 11021 11021 11020 11020 11019 11019 11018 11018 11017 11017 11016 11016 11017 11017 11017 11016 11016 11015 11014 11014 11013 11013 11012 11012 11012 11012 11011 11011 11011 11011 11011 11011 11011 11011 11011 11011 11010 11010 11010 11009 11009 11008 11008 11007 11007 11006 11005 11005 11005 11004 11003 11002 11001 11001 11000 11000 10999 10999 10999 10998 10998 10998 10997 10997 10997 10996 10996 10995
11029 11029 11029 11029 11029 11029 11028 11028 11027 11027 11026 11026 11025 11025 11024 11024 11023 11022 11022 11021 11021 11020 11020 11019 11018 11018 11018 11018 11017 11018 11018 11018 11018 11018 11017 11017 11016 11016 11015 11015 11014 11014 11014 11014 11014 11014 11014 11014 11014 11013 11013 11013 11013 11013 11013 11012 11012 11011 11011 11011 11010 11009 11009 11008 11007 11007 11007 11006 11006 11005 11004 11004 11004 11003 11003 11003 11002 11002 11002 11002 11001 11001 11001 11000 11000
11029 11029 11029 11029 11029 11029 11028 11028 11028 11027 11027 11026 11026 11026 11025 11024 11024 11023 11022 11022 11021 11021 11020 11020 11020 11019 11019 11019 11019 11019 11019 11019 11019 11019 11019 11019 11018 11018 11017 11017 11017 11017 11016 11016 11016 11016 11016 11016 11016 11016 11016 11015 11015 11015 11015 11014 11014 11014 11013 11013 11012 11012 11011 11010 11010 11009 11009 11009 11009 11008 11008 11008 11007 11007 11006 11006 11006 11006 11006 11005 11005 11005 11005 11004 11004
11028 11028 11028 11028 11028 11028 11028 11028 11027 11027 11026 11026 11026 11026 11025 11025 11024 11024 11023 11022 11022 11021 11021 11020 11020 11020 11020 11020 11020 11020 11020 11020 11020 11020 11020 11019 11019 11019 11019 11019 11019 11018 11018 11018 11018 11018 11018 11017 11017 11017 11017 11017 11017 11017 11016 11016 11016 11015 11015 11014 11014 11013 11013 11012 11012 11011 11011 11011 11011 11010 11010 11010 11010 11010 11009 11009 11009 11009 11009 11009 11008 11008 11008 11008 11007
11026 11026 11026 11027 11027 11027 11027 11027 11026 11026 11025 11025 11025 11025 11024 11024 11024 11024 11023 11023 11022 11022 11021 11021 11020 11020 11020 11020 11020 11020 11020 11020 11020 11020 11020 11020 11020 11020 11020 11020 11020 11019 11019 11019 11019 11019 11019 11018 11018 11018 11018 11018 11018 11018 11017 11017 11017 11016 11016 11015 11015 11014 11014 11014 11013 11013 11012 11012 11012 11012 11011 11011 11012 11011 11011 11011 11011 11011 11011 11011 11011 11011 11011 11010 11010
11024 11024 11024 11025 11025 11025 11025 11025 11025 11025 11024 11024 11024 11024 11024 11024 11024 11023 11023 11023 11022 11022 11022 11021 11021 11020 11020 11020 11020 11020 11020 11020 11021 11021 11021 11021 11021 11021 11021 11021 11020 11020 11020 11019 11019 11019 11019 11019 11019 11019 11019 11019 11018 11018 11018 11018 11017 11017 11017 11016 11016 11015 11015 11015 11014 11014 11014 11013 11013 11013 11013 11013 11013 11013 11013 11013 11013 11013 11013 11013 11013 11013 11013 11013 11012
11021 11022 11022 11022 11023 11023 11023 11023 11023 11023 11023 11022 11023 11023 11023 11023 11023 11023 11023 11022 11022 11022 11021 11021 11021 11020 11020 11020 11019 11020 11019 11019 11020 11020 11021 11021 11021 11021 11021 11021 11021 11021 11020 11020 11020 11020 11019 11019 11019 11019 11019 11019 11019 11018 11018 11018 11018 11018 11017 11017 11017 11016 11016 11015 11015 11015 11015 11015 11014 11014 11014 11014 11014 11014 11014 11014 11014 11014 11014 11014 11014 11014 11014 11014 11014
11018 11019 11019 11020 11020 11020 11020 11020 11021 11021 11021 11021 11021 11021 11021 11022 11022 11021 11022 11022 11021 11021 11021 11021 11021 11020 11020 11020 11019 11019 11019 11019 11019 11019 11020 11020 11020 11020 11020 11020 11021 11021 11021 11020 11020 11020 11020 11019 11019 11019 11019 11019 11019 11018 11018 11018 11018 11018 11018 11018 11017 11017 11017 11016 11016 11015 11015 11015 11015 11015 11015 11015 11015 11015 11015 11015 11015 11015 11016 11015 11015 11015 11015 11015 11015
11015 11015 11016 11017 11018 11018 11018 11018 11019 11019 11019 11019 11019 11020 11020 11020 11020 11020 11020 11021 11020 11020 11020 11020 11020 11020 11019 11019 11019 11019 11019 11019 11019 11019 11019 11018 11018 11018 11018 11019 11019 11019 11019 11019 11019 11019 11019 11019 11019 11019 11019 11019 11018 11018 11018 11018 11018 11017 11017 11018 11018 11018 11017 11017 11016 11016 11016 11016 11015 11015 11016 11016 11016 11015 11016 11016 11016 11016 11016 11016 11016 11016 11016 11015 11015
11012 11012 11013 11014 11015 11015 11015 11016 11017 11018 11017 11017 11017 11017 11018 11018 11018 11019 11019 11019 11019 11019 11019 11019 11018 11018 11018 11018 11018 11018 11018 11018 11018 11018 11018 11018 11017 11017 11017 11017 11017 11017 11017 11017 11018 11018 11018 11018 11018 11018 11018 11018 11017 11017 11017 11017 11017 11017 11017 11017 11017 11017 11017 11017 11017 11016 11016 11016 11015 11015 11015 11015 11015 11015 11015 11016 11016 11016 11016 11016 11016 11016 11016 11016 11016
11008 11009 11010 11011 11012 11012 11012 11013 11014 11015 11014 11013 11014 11015 11015 11016 11016 11017 11017 11017 11017 11018 11018 11018 11017 11017 11017 11016 11016 11016 11015 11015 11016 11017 11017 11016 11016 11015 11015 11015 11015 11014 11015 11015 11015 11016 11017 11017 11017 11017 11017 11016 11016 11016 11016 11016 11016 11016 11016 11016 11016 11017 11017 11016 11016 11016 11015 11015 11015 11015 11014 11014 11014 11015 11015 11015 11014 11015 11015 11015 11015 11015 11015 11015 11015
11005 11006 11007 11008 11008 11009 11008 11009 11010 11011 11010 11011 11013 11013 11013 11014 11015 11015 11015 11015 11015 11016 11016 11016 11016 11016 11015 11014 11014 11012 11011 11011 11013 11014 11014 11014 11014 11014 11013 11013 11013 11013 11012 11012 11013 11014 11014 11014 11015 11015 11015 11014 11014 11014 11014 11014 11014 11015 11015 11015 11015 11015 11016 11016 11015 11015 11014 11014 11014 11014 11014 11013 11013 11013 11013 11013 11012 11013 11013 11014 11014 11014 11014 11014 11014
11001 11003 11003 11003 11003 11004 11004 11004 11006 11007 11008 11009 11011 11011 11011 11012 11012 11012 11012 11012 11013 11013 11014 11014 11014 11014 11012 11011 11011 11010 11008 11008 11009 11010 11010 11011 11011 11012 11012 11012 11012 11011 11011 11011 11011 11011 11010 11011 11011 11012 11012 11012 11012 11012 11012 11012 11012 11012 11013 11013 11013 11013 11013 11014 11014 11014 11013 11012 11012 11011 11012 11012 11012 11011 11011 11011 11010 11010 11011 11011 11012 11012 11012 11013 11012
10996 10999 10998 10996 10997 10999 10999 11000 11002 11003 11004 11006 11007 11007 11008 11009 11009 11009 11008 11008 11009 11010 11010 11012 11012 11009 11008 11008 11008 11006 11005 11006 11007 11007 11008 11009 11009 11009 11010 11010 11010 11010 11009 11009 11009 11008 11008 11008 11008 11008 11009 11009 11009 11009 11009 11009 11009 11009 11010 11010 11010 11009 11010 11011 11011 11011 11011 11011 11009 11008 11009 11009 11009 11009 11009 11008 11008 11008 11008 11009 11009 11009 11010 11010 11010
10991 10993 10993 10992 10993 10994 10995 10996 10997 10997 10998 11001 11002 11002 11003 11004 11004 11004 11004 11004 11005 11005 11005 11006 11005 11002 11002 11004 11004 11002 11001 11003 11005 11006 11006 11006 11006 11007 11007 11007 11007 11007 11007 11007 11007 11007 11006 11006 11006 11006 11006 11006 11006 11006 11006 11006 11006 11006 11006 11007 11007 11006 11006 11007 11007 11007 11008 11008 11007 11006 11005 11005 11006 11006 11005 11005 11005 11006 11007 11006 11006 11006 11006 11006 11006